• In Moldova, Republic
  • List of Countries
  • For 7 days
  • Water Temperature
  • Satellite Maps
  • Weather Map
  • Weather Widgets
  • user-avatar
    Login

    Hourly Weather Gjirokaster

    Today, 20 February, Tuesday

    Time Temperature Precipitation Wind Pressure Humidity
    00:00 +1°C° 0.1 mm 3 mps 647 mmHg 86%
    01:00 +1°C° 0 mm 3 mps 646 mmHg 84%
    02:00 0°C° 0.1 mm 3 mps 646 mmHg 84%
    03:00 0°C° 0.1 mm 3 mps 646 mmHg 84%
    04:00 0°C° 0.1 mm 3 mps 646 mmHg 85%
    05:00 0°C° 0.1 mm 3 mps 645 mmHg 84%
    06:00 0°C° 0.1 mm 3 mps 645 mmHg 84%
    07:00 -1°C° 0 mm 5 mps 645 mmHg 83%
    08:00 0°C° 0.2 mm 5 mps 645 mmHg 79%
    09:00 +1°C° 0.2 mm 4 mps 645 mmHg 76%
    10:00 +3°C° 0.2 mm 4 mps 645 mmHg 73%
    11:00 +2°C° 0.8 mm 5 mps 645 mmHg 75%
    12:00 +2°C° 0.8 mm 5 mps 645 mmHg 77%
    13:00 +2°C° 0.8 mm 5 mps 644 mmHg 79%
    14:00 +1°C° 0.8 mm 5 mps 644 mmHg 82%
    15:00 +1°C° 0.8 mm 5 mps 644 mmHg 84%
    16:00 0°C° 0.8 mm 4 mps 643 mmHg 87%
    17:00 0°C° 0.3 mm 4 mps 643 mmHg 87%
    18:00 0°C° 0.3 mm 4 mps 643 mmHg 87%
    19:00 0°C° 0.3 mm 4 mps 643 mmHg 87%
    20:00 0°C° 0.2 mm 4 mps 643 mmHg 86%
    21:00 0°C° 0.2 mm 5 mps 643 mmHg 86%
    22:00 -1°C° 0.2 mm 5 mps 643 mmHg 86%
    23:00 -1°C° 0.4 mm 5 mps 643 mmHg 86%

    Tomorrow, 21 February, Wednesday

    Time Temperature Precipitation Wind Pressure Humidity
    00:00 -1°C° 0.4 mm 5 mps 643 mmHg 87%
    01:00 -1°C° 0.4 mm 5 mps 642 mmHg 87%
    02:00 -1°C° 0.4 mm 5 mps 642 mmHg 88%
    03:00 -1°C° 0.4 mm 5 mps 642 mmHg 88%
    04:00 -1°C° 0.4 mm 4 mps 642 mmHg 88%
    05:00 -1°C° 0.3 mm 4 mps 642 mmHg 87%
    06:00 -1°C° 0.3 mm 4 mps 642 mmHg 87%
    07:00 -1°C° 0.3 mm 4 mps 642 mmHg 87%
    08:00 0°C° 0.2 mm 4 mps 642 mmHg 85%
    09:00 +1°C° 0.2 mm 5 mps 642 mmHg 82%
    10:00 +1°C° 0.2 mm 5 mps 643 mmHg 80%
    11:00 +2°C° 0.4 mm 5 mps 643 mmHg 79%
    12:00 +2°C° 0.4 mm 6 mps 642 mmHg 77%
    13:00 +2°C° 0.4 mm 6 mps 642 mmHg 76%
    14:00 +2°C° 0.3 mm 6 mps 642 mmHg 77%
    15:00 +2°C° 0.3 mm 5 mps 642 mmHg 77%
    16:00 +2°C° 0.3 mm 5 mps 642 mmHg 78%
    17:00 +1°C° 0.2 mm 5 mps 642 mmHg 80%
    18:00 +1°C° 0.2 mm 5 mps 642 mmHg 83%
    19:00 0°C° 0.2 mm 5 mps 642 mmHg 85%
    20:00 0°C° 0.4 mm 5 mps 642 mmHg 85%
    21:00 0°C° 0.4 mm 5 mps 642 mmHg 85%
    22:00 0°C° 0.4 mm 5 mps 642 mmHg 85%
    23:00 0°C° 0.6 mm 5 mps 643 mmHg 86%

    Day after tomorrow, 22 February, Thursday

    Time Temperature Precipitation Wind Pressure Humidity
    00:00 0°C° 0.6 mm 5 mps 643 mmHg 87%
    01:00 -1°C° 0.6 mm 4 mps 643 mmHg 88%
    02:00 -1°C° 0.4 mm 4 mps 643 mmHg 89%
    03:00 -1°C° 0.4 mm 4 mps 643 mmHg 89%
    04:00 -1°C° 0.4 mm 4 mps 643 mmHg 90%
    05:00 -1°C° 0.1 mm 4 mps 643 mmHg 89%
    06:00 -1°C° 0.1 mm 4 mps 643 mmHg 89%
    07:00 -1°C° 0.1 mm 4 mps 643 mmHg 88%
    08:00 0°C° 0 mm 4 mps 644 mmHg 83%
    09:00 +2°C° 0 mm 5 mps 644 mmHg 77%
    10:00 +3°C° 0 mm 5 mps 645 mmHg 72%
    11:00 +3°C° 0 mm 5 mps 645 mmHg 70%
    12:00 +5°C° 0 mm 5 mps 645 mmHg 67%
    13:00 +6°C° 0 mm 5 mps 645 mmHg 65%
    14:00 +5°C° 0 mm 5 mps 645 mmHg 67%
    15:00 +5°C° 0 mm 5 mps 645 mmHg 70%
    16:00 +5°C° 0 mm 4 mps 645 mmHg 72%
    17:00 +4°C° 0 mm 4 mps 645 mmHg 77%
    18:00 +3°C° 0 mm 4 mps 645 mmHg 82%
    19:00 +1°C° 0 mm 4 mps 645 mmHg 87%
    20:00 0°C° 0 mm 4 mps 645 mmHg 88%
    21:00 0°C° 0 mm 4 mps 646 mmHg 88%
    22:00 0°C° 0 mm 4 mps 646 mmHg 88%
    23:00 0°C° 0 mm 4 mps 646 mmHg 87%

    23 February, Friday

    Time Temperature Precipitation Wind Pressure Humidity
    00:00 0°C° 0 mm 4 mps 646 mmHg 86%
    01:00 -1°C° 0 mm 4 mps 645 mmHg 85%
    02:00 -1°C° 0 mm 4 mps 645 mmHg 85%
    03:00 0°C° 0 mm 3 mps 645 mmHg 85%
    04:00 0°C° 0 mm 3 mps 645 mmHg 85%
    05:00 0°C° 0 mm 3 mps 645 mmHg 85%
    06:00 0°C° 0 mm 3 mps 645 mmHg 85%
    07:00 0°C° 0 mm 3 mps 645 mmHg 85%
    08:00 +2°C° 0 mm 3 mps 646 mmHg 79%
    09:00 +3°C° 0 mm 3 mps 646 mmHg 73%
    10:00 +5°C° 0 mm 3 mps 647 mmHg 67%
    11:00 +6°C° 0 mm 4 mps 647 mmHg 63%
    12:00 +7°C° 0 mm 4 mps 647 mmHg 59%
    13:00 +7°C° 0 mm 4 mps 647 mmHg 55%
    14:00 +7°C° 0 mm 4 mps 646 mmHg 58%
    15:00 +7°C° 0 mm 4 mps 646 mmHg 60%
    16:00 +7°C° 0 mm 4 mps 646 mmHg 63%
    17:00 +5°C° 0 mm 4 mps 646 mmHg 67%
    18:00 +4°C° 0 mm 4 mps 646 mmHg 72%
    19:00 +3°C° 0 mm 4 mps 646 mmHg 77%
    20:00 +3°C° 0 mm 4 mps 646 mmHg 78%
    21:00 +3°C° 0 mm 4 mps 645 mmHg 79%
    22:00 +1°C° 0 mm 4 mps 645 mmHg 80%
    23:00 +1°C° 0 mm 5 mps 645 mmHg 81%

    24 February, Saturday

    Time Temperature Precipitation Wind Pressure Humidity
    00:00 +1°C° 0 mm 5 mps 644 mmHg 81%
    01:00 +1°C° 0 mm 5 mps 644 mmHg 82%
    02:00 +1°C° 1 mm 5 mps 644 mmHg 84%
    03:00 0°C° 1 mm 5 mps 644 mmHg 86%
    04:00 0°C° 1 mm 5 mps 644 mmHg 89%
    05:00 0°C° 1.6 mm 5 mps 644 mmHg 90%
    06:00 0°C° 1.6 mm 4 mps 644 mmHg 91%
    07:00 0°C° 1.6 mm 4 mps 644 mmHg 92%
    08:00 +1°C° 0.5 mm 4 mps 645 mmHg 88%
    09:00 +1°C° 0.5 mm 5 mps 645 mmHg 85%
    10:00 +2°C° 0.5 mm 5 mps 646 mmHg 81%
    11:00 +3°C° 0.5 mm 4 mps 646 mmHg 79%
    12:00 +4°C° 0.5 mm 4 mps 646 mmHg 76%
    13:00 +4°C° 0.5 mm 4 mps 646 mmHg 74%
    14:00 +4°C° 0.5 mm 4 mps 646 mmHg 75%
    15:00 +4°C° 0.5 mm 3 mps 645 mmHg 77%
    16:00 +3°C° 0.5 mm 3 mps 645 mmHg 78%
    17:00 +3°C° 0.3 mm 3 mps 645 mmHg 82%
    18:00 +2°C° 0.3 mm 3 mps 645 mmHg 85%
    19:00 +1°C° 0.3 mm 3 mps 645 mmHg 89%
    20:00 +1°C° 0.3 mm 3 mps 645 mmHg 90%
    21:00 +1°C° 0.3 mm 3 mps 645 mmHg 90%
    22:00 +1°C° 0.3 mm 3 mps 645 mmHg 90%
    23:00 +1°C° 0.6 mm 3 mps 645 mmHg 91%

    25 February, Sunday

    Time Temperature Precipitation Wind Pressure Humidity
    00:00 0°C° 0.6 mm 3 mps 645 mmHg 91%
    01:00 0°C° 0.6 mm 3 mps 645 mmHg 91%
    02:00 0°C° 0.8 mm 3 mps 645 mmHg 91%
    03:00 0°C° 0.8 mm 3 mps 644 mmHg 91%
    04:00 0°C° 0.8 mm 3 mps 644 mmHg 91%
    05:00 0°C° 0.5 mm 3 mps 644 mmHg 90%
    06:00 0°C° 0.5 mm 3 mps 644 mmHg 89%
    07:00 -1°C° 0.5 mm 4 mps 644 mmHg 88%
    08:00 -1°C° 0.2 mm 4 mps 645 mmHg 84%
    09:00 0°C° 0.2 mm 4 mps 645 mmHg 80%
    10:00 +1°C° 0.2 mm 4 mps 645 mmHg 77%
    11:00 +1°C° 0.3 mm 4 mps 645 mmHg 78%
    12:00 +1°C° 0.3 mm 4 mps 645 mmHg 79%
    13:00 +1°C° 0.3 mm 5 mps 645 mmHg 80%
    14:00 0°C° 0.7 mm 4 mps 645 mmHg 83%
    15:00 0°C° 0.7 mm 4 mps 644 mmHg 86%
    16:00 0°C° 0.7 mm 4 mps 644 mmHg 89%
    17:00 -1°C° 1.1 mm 4 mps 644 mmHg 90%
    18:00 -1°C° 1.1 mm 5 mps 644 mmHg 91%
    19:00 -1°C° 1.1 mm 5 mps 644 mmHg 92%
    20:00 -1°C° 1 mm 5 mps 644 mmHg 91%
    21:00 -1°C° 1 mm 5 mps 644 mmHg 91%
    22:00 -3°C° 1 mm 6 mps 644 mmHg 90%
    23:00 -3°C° 2.8 mm 6 mps 644 mmHg 91%
    Show more